Location: Newark
(40.9833°N, 0.0333°W)
Time: 02:06:08
(UTC+00:00)

Transit 2A Rocket - Pass Details

Date: 28 October 2020
Orbit: 588 x 914 km, 66.7° (Epoch: 26 November)

Event Time Altitude Azimuth Distance (km) Brightness Sun altitude
Rises 10:44:56 0° 243° (WSW) 3,540 8.5 34.0°
Reaches altitude 10° 10:47:51 10° 255° (WSW) 2,598 7.8 34.1°
Maximum altitude 10:52:59 28° 312° (NW) 1,631 6.5 34.4°
Drops below altitude 10° 10:57:58 10° 10° (N) 2,520 7.3 34.6°
Sets 11:00:47 0° 22° (NNE) 3,415 7.9 34.8°
